Location: �terpigny
(49.8910°N, 2.9249°E)
Time: 14:56:46
(UTC+00:00)

USA 267 - Pass Details

Date: 24 October 2021
Orbit: 1101 x 1107 km, 123.0° (Epoch: 27 November)

Event Time Altitude Azimuth Distance (km) Brightness Sun altitude
Rises 17:55:22 0° 142° (SE) 3,907 5.8 -12.8°
Reaches altitude 10° 17:57:56 10° 147° (SSE) 2,952 5.2 -13.2°
Maximum altitude 18:04:15 52° 222° (SW) 1,349 4.0 -14.3°
Drops below altitude 10° 18:10:37 10° 298° (WNW) 2,964 6.5 -15.3°
Sets 18:13:11 0° 304° (WNW) 3,925 7.1 -15.7°
